www.pogodaiklimat.ru

Погода и климат >> Архив погоды >> Куба >> Ябу


ПОГОДА в Ябу

  • Прогноз погоды в Ябу
  • Монитор погоды в Ябу

АРХИВ ПОГОДЫ в Ябу

Время (UTC), дата Ветер
(напр.,м/с)
 
Видим.   Явления Облачность Т
(С)
Тd
(С)
f
(%)
Тe
(С)
Тes
(С)
Комфортность P
(гПа)
Po
(гПа)
Тmin
(С)
Tmax
(С)
R
(мм)
R24
(мм)
S
(см)
12 11.08 Ю 1 9000 м 1/1 600 м
[Cu hum]
+24.5 +22.9 91 +32 +34 очень
душно
1016.9 1004.6
15 11.08 ЮВ 2 9000 м 1/1 600 м
[Cu hum]
+31.9 +20.1 50 +38 +52 опасность
солнечного
удара
1017.8 1005.4
18 11.08 В 2 9000 м 6/6 600 м
[Cu med, cong]
+34.7 +20.4 43 +41 +50 опасность
перегрева
1016.6 1004.3
21 11.08 В 4 9000 м 5/5 750 м
[Cu med, cong]
+33.1 +21.9 52 +42 +45 опасность
перегрева
1014.7 1002.4
00 12.08 ЮЗ 4 9000 м 9/9 600 м
[Cb calv As op]
+25.5 +20.6 74 +32 +32 очень
душно
1017.9 1005.6
03 12.08 СВ 1 9000 м 1/0 1500 м
[As trans]
+23.4 +21.1 87 +31 +31 очень
душно
1016.6 1004.3
06 12.08 С 1 9000 м 1/0 1500 м
[As trans]
+21.9 +20.3 91 +28 +28 душно 1016.3 1004.0
12 12.08 Ю 1 9000 м 1/1 600 м
[Cu hum]
+22.8 +21.3 91 +30 +32 очень
душно
1015.5 1003.2 1
15 12.08 Ю 3 9000 м 1/1 600 м
[Cu hum]
+30.7 +22.2 61 +40 +51 опасность
солнечного
удара
1016.4 1004.0
18 12.08 В 2 9000 м 8/8 600 м
[Cu med, cong]
+32.9 +20.7 49 +40 +44 очень
душно
1015.3 1003.0
21 12.08 С 5 8000 м 6/6 600 м
[Cb cap]
+25.3 +20.8 76 +32 +33 очень
душно
1014.4 1002.1
00 13.08 ЮЗ 1 9000 м 6/6 600 м
[Cu med, cong]
+25.7 +22.8 84 +34 +34 очень
душно
1015.6 1003.3
03 13.08 С 1 9000 м 4/4 600 м
[Cu med, cong]
+24.0 +22.3 90 +31 +31 очень
душно
1016.5 1004.1
06 13.08 В 1 9000 м 1/1 600 м
[Cu hum]
+22.9 +21.6 92 +31 +31 очень
душно
1015.0 1002.6
09 13.08 ЮВ 1 9000 м 1/1 600 м
[Cu hum]
+22.3 +21.0 92 +29 +29 очень
душно
1014.0 1001.7
12 13.08 ЮВ 2 9000 м 1/1 600 м
[Cu hum]
+24.4 +22.7 90 +32 +33 очень
душно
1015.2 1002.9
15 13.08 Ю 4 9000 м 1/1 600 м
[Cu hum]
+29.8 +21.6 61 +38 +47 очень
душно
1015.4 1003.1
18 13.08 ЮВ 3 9000 м 3/3 600 м
[Cu hum]
+32.9 +19.5 45 +38 +51 опасность
солнечного
удара
1014.6 1002.3
21 13.08 В 5 9000 м 5/5 600 м
[Cu hum]
+32.9 +21.9 52 +41 +43 опасность
перегрева
1013.3 1001.0
00 14.08 В 4 9000 м 5/5 750 м
[Cu med, cong As trans]
+29.4 +23.1 69 +39 +39 очень
душно
1014.7 1002.4
03 14.08 З 3 9000 м 4/4 750 м
[Cu med, cong As trans]
+26.0 +23.2 85 +35 +35 очень
душно
1016.8 1004.4
06 14.08 В 1 9000 м 3/0 1500 м
[As trans]
+23.9 +21.7 88 +31 +31 очень
душно
1016.2 1003.9
09 14.08 Ю 2 9000 м 1/0 1500 м
[As trans]
+23.0 +21.2 90 +31 +31 очень
душно
1015.0 1002.6
12 14.08 В 1 9000 м 3/0 1500 м
[]
+23.3 +21.7 91 +32 +33 очень
душно
1016.2 1003.8
15 14.08 СВ 1 9000 м 5/4 600 м
[Cu med, cong Ac As Cc]
+31.0 +20.9 55 +38 +48 очень
душно
1017.2 1004.9
18 14.08 СВ 4 9000 м 8/8 600 м
[Cu med, cong Ac As]
+30.9 +22.2 60 +40 +43 очень
душно
1015.7 1003.4
21 14.08 С 2 7000 м слаб. дождь {гроза} 9/9 540 м
[Cb cap Ac cuf Ci ing]
+22.6 +21.0 91 +30 +30 очень
душно
1016.6 1004.3
00 15.08 штиль 0 9000 м 9/8 600 м
[Cu med, cong Ac cuf Ci ing]
+23.5 +21.9 91 +30 +30 очень
душно
1017.2 1004.8
03 15.08 З 1 9000 м 9/8 600 м
[Cu med, cong Ac As Cc]
+23.0 +21.5 91 +31 +31 очень
душно
1017.3 1005.0
06 15.08 Ю 1 9000 м 9/8 600 м
[Cu med, cong Ac As Cc]
+23.2 +21.7 91 +31 +31 очень
душно
1017.4 1005.0
09 15.08 В 1 9000 м 6/6 600 м
[Cu med, cong Ac As Cc]
+23.0 +21.5 91 +31 +31 очень
душно
1016.9 1004.5
12 15.08 ЮВ 1 9000 м 6/6 600 м
[Cu med, cong Ac As Cc]
+23.6 +22.0 91 +30 +31 очень
душно
1018.4 1006.1 4
15 15.08 Ю 3 9000 м 3/1 600 м
[Cu med, cong Cc]
+30.2 +22.5 63 +39 +50 очень
душно
1019.1 1006.8 4
18 15.08 В 3 9000 м 6/6 600 м
[Cu med, cong]
+33.0 +21.8 52 +41 +48 опасность
перегрева
1017.8 1005.5
21 15.08 В 4 9000 м 6/6 600 м
[Cu med, cong]
+33.2 +20.8 48 +40 +42 очень
душно
1015.6 1003.3
00 16.08 СЗ 2 8000 м 8/8 600 м
[Cb cap]
+23.7 +20.5 82 +29 +29 душно 1018.0 1005.6
03 16.08 СЗ 4 8000 м 4/4 600 м
[Cu med, cong]
+23.5 +20.4 83 +29 +29 душно 1020.4 1008.0
06 16.08 штиль 0 н/о 3/3 600 м
[Cu med, cong]
+22.4 +20.4 88 +29 +29 очень
душно
1019.6 1007.3
09 16.08 штиль 0 н/о 3/3 600 м
[Cu med, cong]
+22.5 +20.4 88 +29 +29 очень
душно
1018.2 1005.8
12 16.08 штиль 0 9000 м 4/4 600 м
[Cu hum As trans]
+23.1 +21.2 89 +31 +32 очень
душно
1019.0 1006.7 2
15 16.08 штиль 0 9000 м 1/1 600 м
[Cu hum]
+30.6 +23.1 64 +41 +59 опасность
перегрева
1019.3 1006.9
18 16.08 штиль 0 9000 м 5/4 600 м
[Cu hum Cc]
+32.9 +21.4 51 +41 +57 опасность
перегрева
1018.4 1006.0
21 16.08 Ю 8 2000 м сильн. гроза, ливневой дождь 10/10 480 м
[Cb cap Ac cast]
+23.2 +19.0 77 +29 +29 душно 1019.7 1007.4
00 17.08 СВ 2 8000 м 9/9 600 м
[Cu med, cong Ac cast Ci ing]
+22.1 +20.5 91 +28 +28 душно 1018.5 1006.1
03 17.08 ЮВ 2 9000 м 8/6 600 м
[Cu med, cong Ac As Cc]
+21.8 +20.5 92 +28 +28 душно 1019.8 1007.5
06 17.08 С 1 9000 м 4/4 600 м
[Cu med, cong Ac As Cc]
+22.0 +20.7 92 +28 +28 душно 1019.9 1007.5
12 17.08 штиль 0 7000 м 6/6 600 м
[Cu med, cong Ac cuf Ci ing]
+22.5 +21.1 92 +30 +30 очень
душно
1019.6 1007.2 20
15 17.08 ЮВ 2 9000 м 1/1 600 м
[Cu hum]
+29.8 +23.6 69 +40 +54 опасность
солнечного
удара
1020.1 1007.8
18 17.08 В 5 9000 м 8/8 600 м
[Cu med, cong]
+32.5 +22.7 56 +42 +44 опасность
перегрева
1018.9 1006.5
21 17.08 В 7 9000 м 4/4 600 м
[Cu med, cong]
+31.9 +23.4 61 +43 +44 опасность
перегрева
1017.0 1004.7
00 18.08 З 1 9000 м 4/4 600 м
[Cu med, cong]
+23.3 +21.1 87 +31 +31 очень
душно
1018.3 1006.0
03 18.08 Ю 2 9000 м 3/1 600 м
[Cu med, cong]
+22.5 +20.5 88 +29 +29 очень
душно
1019.4 1007.0
06 18.08 ЮВ 2 8000 м 3/1 600 м
[Cu med, cong]
+23.2 +21.6 91 +31 +31 очень
душно
1018.8 1006.4

 

Местоположение метеостанции Ябу (Куба): широта 22.47 долгота -79.98 высота над уровнем моря 116 м.

В архиве по умолчанию представлена погода в Ябу за последнюю неделю. Архивные данные за месяц целиком и за предыдущие месяцы, начиная с января 2011 года, Вы можете получить, выбрав интересующий диапазон дат из раскрывающегося списка и нажав кнопку "Ввод!".


*Определитесь, кто Вы:
робот инопланетянин человек

Внимание! Время в таблицах - всемирное. Для получения местного времени необходимо прибавить поправку, которая равна -5 ч.

Смотрите также архив погоды в соседних городах и на ближайших метеорологических станциях:

Погода в Кайбарьене (Куба) (55 км)
Погода в Сьенфуэгосе (Куба) (64 км)
Погода в Санкти-Спиритусе (Куба) (81 км)
Погода в Плайя Хирон (Куба) (117 км)
Погода в Хукаро (Куба) (150 км)
Погода в Варадеро (Куба) (161 км)
Погода в Кайо-Коко (Куба) (166 км)
Погода в Батабано (Куба) (238 км)
Погода в Камагуэе (Куба) (249 км)
Погода в Камагуэе (Куба) (250 км)

Пояснения к столбцам:

Ветер - указаны скорость ветра в м/с - средняя за 10 мин, порывы в срок и между сроками (в фигурных скобках) и направление, откуда дует ветер: С - северный, СВ - северо-восточный, В - восточный, ЮВ - юго-восточный, Ю - южный, ЮЗ - юго-западный, З - западный, СЗ - северо-западный.
Видимость - горизонтальная дальность видимости в метрах или километрах. При видимости от 1 до 10 км при отсутствии осадков обычно наблюдается дымка, при ухудшении видимости до 1 км и менее - туман. В сухую погоду видимость может ухудшаться дымом, пылью или мглою.
Явления - указаны атмосферные явления, наблюдавшиеся в срок или в последний час перед сроком; фигурными скобками обозначены явления, наблюдавшиеся между сроками (за 1-3 часа до срока); квадратными скобками обозначены град или гололедные отложения с указанием их диаметра в мм.
Облачность - указаны через наклонную черту общая и нижняя облачность в баллах и высота нижней границы облаков в метрах; квадратными скобками обозначены формы облаков: Ci - перистые, Cs - перисто-слоистые, Cc - перисто-кучевые, Ac - высококучевые, As - высокослоистые, Sc - слоисто-кучевые, Ns - слоисто-дождевые, Cu - кучевые, Cb - кучево-дождевые. Подробнее классификацию облаков см. в Атласе облаков (PDF).
T - Температура воздуха - температура, измеренная на высоте 2 м над землей.
Td - Температура точки росы - температура, при понижении до которой содержащийся в воздухе водяной пар достигнет насыщения.
f - Относительная влажность воздуха - влажноcть воздуха, измеренная на высоте 2 м над землей.
Te - Эффективная температура - температура, которую ощущает одетый по сезону человек в тени. Характеристика душности погоды. При расчете учитывается влияние влажности воздуха и скорости ветра на теплоощущения человека.
Tes - Эффективная температура на солнце - температура, которую ощущает человек, с поправкой на солнечный нагрев. Характеристика знойности погоды. Зависит от высоты солнца над горизонтом, облачности и скорости ветра. Ночью, в пасмурную погоду, а также при ветре 12 м/с и более поправка равна нулю.
P - Атмосферное давление - приведенное к уровню моря атмосферное давление.
Po - Атмосферное давление - измеренное на уровне метеостанции атмосферное давление.
Tmin - Минимальная температура - минимум температуры воздуха на высоте 2 м над землей.
Tmax - Максимальная температура - максимум температуры воздуха на высоте 2 м над землей.
R - Количество осадков - Количество выпавших осадков за период времени, мм. При наведении курсора мыши на число - период времени, за который выпало указанное количество осадков.
R24 - Количество осадков - Количество выпавших осадков за 24 часа, мм.
S - Снежный покров - Высота снежного покрова, см. При наведении курсора мыши на число - состояние снежного покрова и степень покрытия местности в баллах.